Location: Ahstedt
(52.2048°N, 10.1060°E)
Time: 00:36:12
(UTC+00:00)

BREEZE-M DEB (TANK) - Pass Details

Date: 18 January 2026
Orbit: 312 x 11317 km, 49.7° (Epoch: 17 February)

Event Time Altitude Azimuth Distance (km) Brightness Sun altitude
Exits shadow 05:19:00 35° 188° (S) 537 3.3 -17.7°
Drops below altitude 10° 05:21:03 10° 126° (SE) 1,247 6.2 -17.4°
Sets 05:23:10 0° 116° (ESE) 2,309 8.0 -17.1°
